{"data":{"norad_id":48075,"epoch":"2026-05-25T04:29:29.586336Z","epoch_age_seconds":55494,"freshness":"FRESH","line1":"1 48075U 21025AK  26145.18714799  .00000283  00000+0  74051-3 0  9990","line2":"2 48075  87.8931 324.8192 0001499  91.2420 268.8880 13.13470741250707","mean_motion":13.13470741,"eccentricity":0.0001499,"inclination_deg":87.8931,"raan_deg":324.8192,"arg_perigee_deg":91.242,"mean_anomaly_deg":268.888,"bstar":0.00074051,"rev_number":25070,"period_min":109.63319966333,"perigee_km":1208.6251199268,"apogee_km":1210.8999722107,"semimajor_km":7587.8995460688,"source":"CELESTRAK","updated_at":"2026-05-25T13:38:22.394913Z"}}